FW6002 Weather Reports


Display with metric or nautical units.
time (UTC)temp
F
wind
direction
speed
MPH
gust
MPH
rain 1hr
in
rain 24hr
in
rain mn
in
humidity
%
barometer
mb
20260902165054 98 282 0.0 3.0 0.00 0.00 0.00 48 1015.3
20260902164605 97 290 0.0 3.0 0.00 0.00 0.00 48 1015.4
20260902164054 97 121 0.0 3.0 0.00 0.00 0.00 50 1015.5
20260902163555 97 57 0.0 2.0 0.00 0.00 0.00 53 1015.6
20260902163106 96 44 0.0 2.0 0.00 0.00 0.00 53 1015.6
20260902162555 96 323 1.0 2.0 0.00 0.00 0.00 55 1015.7
20260902162055 96 67 0.0 2.0 0.00 0.00 0.00 53 1015.7
20260902161605 96 0 0.0 2.0 0.00 0.00 0.00 54 1015.6
20260902161054 95 0 0.0 2.0 0.00 0.00 0.00 56 1015.7
20260902160555 95 29 0.0 2.0 0.00 0.00 0.00 55 1015.9
20260902160059 94 0 0.0 2.0 0.00 0.00 0.00 56 1015.7
20260902155558 93 0 0.0 2.0 0.00 0.00 0.00 58 1015.8
20260902155055 93 274 0.0 2.0 0.00 0.00 0.00 57 1015.7
20260902154607 93 0 0.0 3.0 0.00 0.00 0.00 57 1015.6
20260902154054 93 0 0.0 4.0 0.00 0.00 0.00 59 1015.8
20260902153556 92 32 0.0 4.0 0.00 0.00 0.00 59 1015.8
20260902153104 91 63 1.0 4.0 0.00 0.00 0.00 59 1015.8
20260902152556 91 182 0.0 2.0 0.00 0.00 0.00 60 1015.8
20260902152055 91 207 0.0 3.0 0.00 0.00 0.00 59 1015.8
20260902151603 90 61 0.0 3.0 0.00 0.00 0.00 61 1015.8
20260902151057 90 154 0.0 3.0 0.00 0.00 0.00 62 1015.9
20260902150555 89 44 1.0 3.0 0.00 0.00 0.00 63 1015.7
20260902150103 89 121 0.0 3.0 0.00 0.00 0.00 62 1015.8
20260902145556 89 200 0.0 3.0 0.00 0.00 0.00 63 1015.9
20260902145056 88 193 0.0 3.0 0.00 0.00 0.00 63 1015.9
20260902144607 87 225 1.0 4.0 0.00 0.00 0.00 65 1015.9
20260902144055 87 69 1.0 5.0 0.00 0.00 0.00 64 1015.9
20260902143556 87 54 1.0 5.0 0.00 0.00 0.00 65 1015.9
20260902143107 86 48 1.0 4.0 0.00 0.00 0.00 65 1015.8
20260902142555 86 0 1.0 4.0 0.00 0.00 0.00 66 1016.0
20260902142056 86 58 1.0 3.0 0.00 0.00 0.00 66 1015.9
20260902141603 85 62 1.0 3.0 0.00 0.00 0.00 67 1015.8
20260902141057 85 98 0.0 3.0 0.00 0.00 0.00 68 1015.9
20260902140558 84 0 0.0 3.0 0.00 0.00 0.00 69 1015.7
20260902140109 83 75 0.0 3.0 0.00 0.00 0.00 70 1015.8
20260902135557 83 174 0.0 2.0 0.00 0.00 0.00 71 1015.8
20260902135055 82 182 0.0 2.0 0.00 0.00 0.00 73 1015.8
20260902134601 82 146 0.0 1.0 0.00 0.00 0.00 73 1015.8
20260902134055 82 80 0.0 1.0 0.00 0.00 0.00 74 1015.6
20260902133555 81 0 0.0 0.0 0.00 0.00 0.00 76 1015.7
20260902133106 80 0 0.0 0.0 0.00 0.00 0.00 77 1015.6
20260902132555 79 0 0.0 0.0 0.00 0.00 0.00 78 1015.8
20260902132055 79 0 0.0 0.0 0.00 0.00 0.00 79 1015.7
20260902131608 79 0 0.0 0.0 0.00 0.00 0.00 79 1015.6
20260902131056 78 0 0.0 0.0 0.00 0.00 0.00 80 1015.6
20260902130556 77 0 0.0 0.0 0.00 0.00 0.00 81 1015.5
20260902130107 77 0 0.0 0.0 0.00 0.00 0.00 83 1015.4
20260902125555 76 0 0.0 0.0 0.00 0.00 0.00 83 1015.4
20260902125056 75 0 0.0 0.0 0.00 0.00 0.00 84 1015.5
20260902124600 75 0 0.0 0.0 0.00 0.00 0.00 84 1015.3
20260902124055 75 0 0.0 0.0 0.00 0.00 0.00 84 1015.5
20260902123555 74 0 0.0 0.0 0.00 0.00 0.00 84 1015.3
20260902123107 74 0 0.0 0.0 0.00 0.00 0.00 85 1015.3
20260902122555 74 0 0.0 0.0 0.00 0.00 0.00 85 1015.2
20260902122055 74 0 0.0 0.0 0.00 0.00 0.00 84 1015.1
20260902121609 74 0 0.0 0.0 0.00 0.00 0.00 84 1015.1
20260902121056 74 0 0.0 0.0 0.00 0.00 0.00 84 1015.1
20260902120558 74 0 0.0 0.0 0.00 0.00 0.00 84 1015.1
20260902120104 74 0 0.0 0.0 0.00 0.00 0.00 84 1015.0
20260902115554 74 0 0.0 0.0 0.00 0.00 0.00 83 1015.2
20260902115055 74 0 0.0 0.0 0.00 0.00 0.00 83 1015.0
20260902114559 75 0 0.0 0.0 0.00 0.00 0.00 83 1015.1
20260902114055 75 0 0.0 0.0 0.00 0.00 0.00 83 1015.0
20260902113559 75 0 0.0 0.0 0.00 0.00 0.00 83 1015.0
20260902113108 75 0 0.0 0.0 0.00 0.00 0.00 83 1015.1
20260902112649 75 0 0.0 0.0 0.00 0.00 0.00 82 1015.1
20260902112056 75 0 0.0 0.0 0.00 0.00 0.00 82 1015.0
20260902111601 75 0 0.0 0.0 0.00 0.00 0.00 81 1015.0
20260902111055 75 0 0.0 0.0 0.00 0.00 0.00 81 1015.0
20260902110555 75 0 0.0 0.0 0.00 0.00 0.00 81 1015.0
20260902110101 76 0 0.0 0.0 0.00 0.00 0.00 81 1014.9
20260902105554 76 0 0.0 0.0 0.00 0.00 0.00 80 1014.9
20260902105056 76 0 0.0 0.0 0.00 0.00 0.00 80 1014.9
20260902104615 76 0 0.0 0.0 0.00 0.00 0.00 81 1014.9
20260902104055 76 0 0.0 0.0 0.00 0.00 0.00 80 1015.0
20260902103555 76 0 0.0 0.0 0.00 0.00 0.00 80 1015.0
20260902103106 76 0 0.0 0.0 0.00 0.00 0.00 80 1015.0
20260902102555 76 0 0.0 0.0 0.00 0.00 0.00 80 1014.9
20260902102056 76 0 0.0 0.0 0.00 0.00 0.00 79 1015.0
20260902101601 76 0 0.0 0.0 0.00 0.00 0.00 79 1014.9
20260902101055 77 0 0.0 0.0 0.00 0.00 0.00 79 1014.9
20260902100555 77 0 0.0 0.0 0.00 0.00 0.00 78 1014.9
20260902100104 77 0 0.0 0.0 0.00 0.00 0.00 78 1014.9
20260902095554 77 0 0.0 0.0 0.00 0.00 0.00 78 1015.0
20260902095055 77 0 0.0 0.0 0.00 0.00 0.00 78 1015.0
20260902094606 77 0 0.0 0.0 0.00 0.00 0.00 78 1014.7
20260902094056 77 0 0.0 0.0 0.00 0.00 0.00 78 1014.8
20260902093556 77 0 0.0 0.0 0.00 0.00 0.00 78 1014.8
20260902093105 77 0 0.0 0.0 0.00 0.00 0.00 78 1014.7
20260902092555 77 0 0.0 0.0 0.00 0.00 0.00 77 1014.9
20260902092055 77 0 0.0 0.0 0.00 0.00 0.00 77 1015.0
20260902091612 78 0 0.0 0.0 0.00 0.00 0.00 77 1015.0
20260902091055 78 0 0.0 0.0 0.00 0.00 0.00 76 1015.0
20260902090559 78 0 0.0 0.0 0.00 0.00 0.00 76 1014.9
20260902090106 78 0 0.0 0.0 0.00 0.00 0.00 76 1014.9
20260902085555 79 0 0.0 0.0 0.00 0.00 0.00 75 1015.0
20260902085055 79 0 0.0 0.0 0.00 0.00 0.00 74 1015.1
20260902084608 80 0 0.0 0.0 0.00 0.00 0.00 74 1015.0
20260902084056 80 0 0.0 0.0 0.00 0.00 0.00 73 1015.1
20260902083555 80 0 0.0 0.0 0.00 0.00 0.00 73 1015.2
20260902083117 80 0 0.0 2.0 0.00 0.00 0.00 72 1015.0
20260902082555 81 0 0.0 2.0 0.00 0.00 0.00 72 1015.2
20260902082055 81 0 0.0 2.0 0.00 0.00 0.00 72 1015.1
20260902081601 81 0 0.0 2.0 0.00 0.00 0.00 72 1015.1
20260902081055 81 0 0.0 2.0 0.00 0.00 0.00 72 1015.2
20260902080559 81 0 0.0 1.0 0.00 0.00 0.00 72 1015.2
20260902075558 81 0 0.0 2.0 0.00 0.00 0.00 72 1015.1
20260902075056 81 0 0.0 2.0 0.00 0.00 0.00 71 1015.1
20260902074619 81 0 0.0 2.0 0.00 0.00 0.00 71 1015.2
20260902074055 81 60 0.0 2.0 0.00 0.00 0.00 71 1015.3
20260902073556 81 0 0.0 2.0 0.00 0.00 0.00 71 1015.3
20260902073104 81 82 0.0 2.0 0.00 0.00 0.00 70 1015.3
20260902072556 82 0 0.0 2.0 0.00 0.00 0.00 70 1015.3
20260902072057 82 65 0.0 2.0 0.00 0.00 0.00 70 1015.3
20260902071602 82 0 0.0 3.0 0.00 0.00 0.00 69 1015.2
20260902071058 82 0 0.0 3.0 0.00 0.00 0.00 69 1015.3
20260902070554 82 72 0.0 2.0 0.00 0.00 0.00 69 1015.4
20260902070106 82 93 0.0 2.0 0.00 0.00 0.00 69 1015.3
20260902065555 82 0 1.0 3.0 0.00 0.00 0.00 69 1015.3
20260902065056 83 0 0.0 3.0 0.00 0.00 0.00 68 1015.4
20260902064601 83 0 0.0 3.0 0.00 0.00 0.00 68 1015.4
20260902064057 83 0 1.0 3.0 0.00 0.00 0.00 68 1015.5
20260902063556 83 0 1.0 4.0 0.00 0.00 0.00 68 1015.4
20260902063103 83 0 1.0 4.0 0.00 0.00 0.00 67 1015.3
20260902062556 83 188 1.0 4.0 0.00 0.00 0.00 67 1015.3
20260902062055 83 0 1.0 5.0 0.00 0.00 0.00 67 1015.3
20260902061604 83 66 1.0 5.0 0.00 0.00 0.00 67 1015.1
20260902061055 83 78 0.0 6.0 0.00 0.00 0.00 66 1015.1
20260902060555 84 92 1.0 6.0 0.00 0.00 0.00 66 1015.1
20260902060107 84 80 1.0 6.0 0.00 0.00 0.00 66 1015.1
20260902055555 84 101 1.0 5.0 0.00 0.00 0.00 66 1015.0
20260902055056 84 283 1.0 5.0 0.00 0.00 0.00 65 1014.9
20260902054609 84 32 2.0 5.0 0.00 0.00 0.00 65 1015.0
20260902054057 84 217 1.0 4.0 0.00 0.00 0.00 64 1015.0
20260902053555 84 199 1.0 4.0 0.00 0.00 0.00 64 1014.8
20260902053113 85 0 1.0 4.0 0.00 0.00 0.00 63 1014.9
20260902052557 85 58 1.0 4.0 0.00 0.00 0.00 63 1014.8
20260902052056 85 0 1.0 4.0 0.00 0.00 0.00 63 1014.7
20260902051624 85 54 1.0 4.0 0.00 0.00 0.00 62 1014.6
20260902051055 85 78 2.0 6.0 0.00 0.00 0.00 62 1014.8
20260902050555 85 73 1.0 6.0 0.00 0.00 0.00 61 1014.7
20260902050110 85 93 1.0 5.0 0.00 0.00 0.00 62 1014.8
20260902045555 85 112 1.0 5.0 0.00 0.00 0.00 63 1014.7
20260902045055 83 130 1.0 5.0 0.00 0.00 0.00 65 1014.7
20260902044602 83 0 0.0 0.0 0.00 0.00 0.00 65 1014.6
20260902044056 84 0 0.0 0.0 0.00 0.00 0.00 64 1014.5
20260902043555 84 0 0.0 1.0 0.00 0.00 0.00 63 1014.4
20260902043121 85 0 0.0 1.0 0.00 0.00 0.00 62 1014.6
20260902042555 85 0 0.0 1.0 0.00 0.00 0.00 62 1014.4
20260902042056 85 95 0.0 1.0 0.00 0.00 0.00 61 1014.4
20260902041603 86 0 0.0 1.0 0.00 0.00 0.00 61 1014.4
20260902041055 86 0 0.0 1.0 0.00 0.00 0.00 60 1014.4
20260902040555 86 123 0.0 2.0 0.00 0.00 0.00 60 1014.4
20260902040105 86 0 0.0 2.0 0.00 0.00 0.00 60 1014.4
20260902035554 86 84 0.0 2.0 0.00 0.00 0.00 60 1014.4
20260902035054 86 0 0.0 2.0 0.00 0.00 0.00 60 1014.3
20260902034601 86 0 0.0 3.0 0.00 0.00 0.00 60 1014.4
20260902034054 86 0 0.0 3.0 0.00 0.00 0.00 60 1014.4
20260902033555 86 145 0.0 1.0 0.00 0.00 0.00 60 1014.4
20260902033103 86 0 0.0 1.0 0.00 0.00 0.00 60 1014.2
20260902032556 86 0 0.0 1.0 0.00 0.00 0.00 60 1014.1
20260902032056 86 0 0.0 0.0 0.00 0.00 0.00 60 1014.0
20260902031607 86 0 0.0 0.0 0.00 0.00 0.00 60 1014.2
20260902031055 87 0 0.0 0.0 0.00 0.00 0.00 59 1014.0
20260902030555 87 0 0.0 2.0 0.00 0.00 0.00 57 1013.9
20260902030100 87 0 0.0 2.0 0.00 0.00 0.00 57 1013.8
20260902025555 87 129 0.0 1.0 0.00 0.00 0.00 57 1013.9
20260902025055 87 0 0.0 2.0 0.00 0.00 0.00 57 1013.8
20260902024600 88 0 0.0 2.0 0.00 0.00 0.00 56 1013.6
20260902024054 88 0 0.0 2.0 0.00 0.00 0.00 56 1013.5
20260902023554 89 0 0.0 2.0 0.00 0.00 0.00 56 1013.5
20260902023115 89 0 0.0 2.0 0.00 0.00 0.00 56 1013.4
20260902022558 89 0 0.0 2.0 0.00 0.00 0.00 56 1013.4
20260902022055 89 66 0.0 2.0 0.00 0.00 0.00 56 1013.3
20260902021604 89 132 0.0 2.0 0.00 0.00 0.00 56 1013.3
20260902021055 89 48 0.0 2.0 0.00 0.00 0.00 56 1013.0
20260902020555 90 0 0.0 2.0 0.00 0.00 0.00 56 1013.0
20260902020105 90 0 0.0 3.0 0.00 0.00 0.00 56 1013.1
20260902015558 90 132 0.0 3.0 0.00 0.00 0.00 55 1012.9
20260902015056 90 0 0.0 2.0 0.00 0.00 0.00 55 1012.9
20260902014603 90 0 0.0 2.0 0.00 0.00 0.00 55 1012.9
20260902014055 90 0 0.0 2.0 0.00 0.00 0.00 55 1012.8
20260902013555 90 0 0.0 2.0 0.00 0.00 0.00 54 1012.9
20260902013116 91 104 1.0 2.0 0.00 0.00 0.00 53 1012.9
20260902012555 91 88 0.0 2.0 0.00 0.00 0.00 53 1012.7
20260902012055 91 163 1.0 2.0 0.00 0.00 0.00 52 1012.6
20260902011635 91 49 0.0 2.0 0.00 0.00 0.00 52 1012.7
20260902011055 92 80 0.0 2.0 0.00 0.00 0.00 51 1012.5
20260902010555 92 0 0.0 2.0 0.00 0.00 0.00 50 1012.5
20260902005555 92 0 0.0 2.0 0.00 0.00 0.00 48 1012.4
20260902005056 93 165 1.0 2.0 0.00 0.00 0.00 48 1012.4
20260902004609 93 215 0.0 2.0 0.00 0.00 0.00 48 1012.3
20260902004059 93 0 0.0 2.0 0.00 0.00 0.00 48 1012.3
20260902003558 93 152 0.0 2.0 0.00 0.00 0.00 48 1012.5
20260902003112 93 103 0.0 2.0 0.00 0.00 0.00 48 1012.7
20260902002557 93 88 0.0 2.0 0.00 0.00 0.00 47 1012.7
20260902002055 94 0 0.0 3.0 0.00 0.00 0.00 46 1012.7
20260902001605 94 175 0.0 3.0 0.00 0.00 0.00 46 1012.8
20260902001055 94 19 0.0 2.0 0.00 0.00 0.00 46 1012.8
20260902000555 94 0 0.0 3.0 0.00 0.00 0.00 45 1012.7
20260902000105 94 63 0.0 3.0 0.00 0.00 0.00 45 1012.7
20260901235556 94 290 1.0 3.0 0.00 0.00 0.00 45 1012.8
20260901235055 94 117 0.0 3.0 0.00 0.00 0.00 45 1012.9
20260901234610 94 161 1.0 3.0 0.00 0.00 0.00 46 1012.9
20260901234055 94 193 0.0 3.0 0.00 0.00 0.00 46 1012.9
20260901233555 94 67 1.0 4.0 0.00 0.00 0.00 46 1012.8
20260901233108 94 65 1.0 4.0 0.00 0.00 0.00 46 1012.9
20260901232555 94 75 1.0 4.0 0.00 0.00 0.00 47 1012.9
20260901232056 95 13 1.0 4.0 0.00 0.00 0.00 47 1012.8
20260901231615 95 134 1.0 4.0 0.00 0.00 0.00 45 1012.8
20260901231056 95 74 1.0 3.0 0.00 0.00 0.00 45 1012.9
20260901230557 95 198 0.0 5.0 0.00 0.00 0.00 44 1012.9
20260901230111 95 170 1.0 6.0 0.00 0.00 0.00 44 1012.8
20260901225555 96 101 1.0 6.0 0.00 0.00 0.00 43 1012.9
20260901225056 97 48 2.0 6.0 0.00 0.00 0.00 43 1012.8
20260901224605 98 126 2.0 5.0 0.00 0.00 0.00 42 1012.6
20260901224056 98 165 2.0 5.0 0.00 0.00 0.00 41 1012.7
20260901223558 97 192 1.0 5.0 0.00 0.00 0.00 41 1012.6
20260901223103 97 0 0.0 3.0 0.00 0.00 0.00 42 1012.7
20260901222554 96 0 0.0 0.0 0.00 0.00 0.00 44 1012.9
20260901222055 96 0 0.0 1.0 0.00 0.00 0.00 44 1012.9
20260901221625 96 0 0.0 3.0 0.00 0.00 0.00 44 1012.8
20260901221055 96 0 0.0 4.0 0.00 0.00 0.00 42 1012.8
20260901220556 97 0 0.0 4.0 0.00 0.00 0.00 42 1013.0
20260901220121 97 203 0.0 3.0 0.00 0.00 0.00 42 1013.1
20260901215556 97 0 1.0 3.0 0.00 0.00 0.00 42 1013.1
20260901215057 97 147 1.0 3.0 0.00 0.00 0.00 41 1013.1
20260901214604 97 74 0.0 4.0 0.00 0.00 0.00 42 1013.0
20260901214055 97 0 1.0 5.0 0.00 0.00 0.00 42 1013.0
20260901213555 97 82 1.0 6.0 0.00 0.00 0.00 41 1013.0
20260901213110 98 198 1.0 6.0 0.00 0.00 0.00 41 1013.0
20260901212555 98 119 1.0 5.0 0.00 0.00 0.00 41 1013.1
20260901212056 97 144 1.0 4.0 0.00 0.00 0.00 42 1013.0
20260901211559 97 43 1.0 4.0 0.00 0.00 0.00 41 1013.3
20260901211055 97 40 1.0 3.0 0.00 0.00 0.00 41 1013.2
20260901210556 97 208 1.0 4.0 0.00 0.00 0.00 41 1013.2
20260901210124 98 163 1.0 4.0 0.00 0.00 0.00 39 1013.3
20260901205559 99 36 1.0 4.0 0.00 0.00 0.00 39 1013.5
20260901205056 97 0 1.0 4.0 0.00 0.00 0.00 42 1013.4
20260901204624 96 95 0.0 5.0 0.00 0.00 0.00 42 1013.6
20260901204055 97 89 2.0 5.0 0.00 0.00 0.00 42 1013.8
20260901203558 97 184 1.0 4.0 0.00 0.00 0.00 42 1013.7
20260901203104 98 124 0.0 3.0 0.00 0.00 0.00 41 1013.7
20260901202556 99 53 1.0 4.0 0.00 0.00 0.00 39 1013.6
20260901202058 100 148 0.0 5.0 0.00 0.00 0.00 40 1013.6
20260901201603 98 0 0.0 7.0 0.00 0.00 0.00 41 1013.6
20260901201056 100 251 1.0 7.0 0.00 0.00 0.00 39 1013.9
20260901200555 98 167 1.0 7.0 0.00 0.00 0.00 43 1013.9
20260901200123 98 127 2.0 7.0 0.00 0.00 0.00 42 1014.0
20260901195556 99 201 2.0 7.0 0.00 0.00 0.00 40 1014.0
20260901195057 99 0 1.0 7.0 0.00 0.00 0.00 42 1014.1
20260901194612 97 53 1.0 5.0 0.00 0.00 0.00 42 1014.3
20260901194059 99 208 1.0 6.0 0.00 0.00 0.00 41 1014.2
20260901193556 101 66 1.0 6.0 0.00 0.00 0.00 39 1014.3
20260901193103 101 173 1.0 4.0 0.00 0.00 0.00 40 1014.3
20260901192559 100 0 1.0 4.0 0.00 0.00 0.00 39 1014.2
20260901192055 100 157 1.0 7.0 0.00 0.00 0.00 41 1014.4
20260901191638 99 205 1.0 7.0 0.00 0.00 0.00 41 1014.5
20260901191059 99 153 1.0 7.0 0.00 0.00 0.00 41 1014.6
20260901190555 100 196 2.0 6.0 0.00 0.00 0.00 40 1014.9
20260901190109 101 147 1.0 4.0 0.00 0.00 0.00 37 1014.8
20260901185559 100 317 1.0 7.0 0.00 0.00 0.00 42 1014.8
20260901185055 99 195 1.0 7.0 0.00 0.00 0.00 40 1015.0
20260901184605 99 173 1.0 6.0 0.00 0.00 0.00 40 1015.0
20260901184055 100 229 1.0 6.0 0.00 0.00 0.00 40 1014.9
20260901183557 99 0 0.0 4.0 0.00 0.00 0.00 41 1015.2
20260901183102 100 54 1.0 4.0 0.00 0.00 0.00 39 1015.4
20260901182558 100 0 1.0 5.0 0.00 0.00 0.00 41 1015.4
20260901182056 99 72 2.0 5.0 0.00 0.00 0.00 42 1015.5
20260901181619 99 200 1.0 5.0 0.00 0.00 0.00 41 1015.6
20260901181055 97 191 1.0 4.0 0.00 0.00 0.00 44 1015.7
20260901180555 96 197 1.0 6.0 0.00 0.00 0.00 42 1015.7
20260901180105 98 83 2.0 6.0 0.00 0.00 0.00 43 1015.8
20260901175557 98 154 2.0 5.0 0.00 0.00 0.00 42 1015.9
20260901175055 98 224 1.0 5.0 0.00 0.00 0.00 44 1015.9
20260901174601 99 49 1.0 4.0 0.00 0.00 0.00 43 1016.0
20260901174056 99 33 0.0 6.0 0.00 0.00 0.00 42 1016.0
20260901173555 97 132 0.0 6.0 0.00 0.00 0.00 47 1016.2
20260901173118 99 64 0.0 6.0 0.00 0.00 0.00 43 1016.3
20260901172556 98 167 1.0 6.0 0.00 0.00 0.00 44 1016.5
20260901172054 97 0 1.0 4.0 0.00 0.00 0.00 45 1016.4
20260901171606 97 221 1.0 4.0 0.00 0.00 0.00 45 1016.4
20260901171055 98 0 1.0 4.0 0.00 0.00 0.00 44 1016.5
20260901170556 97 0 1.0 4.0 0.00 0.00 0.00 45 1016.6
20260901170104 96 58 0.0 5.0 0.00 0.00 0.00 45 1016.6
20260901165556 97 92 2.0 5.0 0.00 0.00 0.00 46 1016.7